#timestamp,LO_Frequency,Hit,StdDev 
1568466015.4,286047002.1,N
1568466035.2,286047001.9,N
1568466055.1,286046999.8,N
1568466056.0,286046999.8,N
1568466075.8,286046999.8,N
1568466095.6,286047002.0,N
1568466115.5,286047000.3,N
1568466135.3,286047000.9,N
1568466155.2,286047000.1,N
1568466175.9,286047002.3,N
1568466195.7,286047000.5,N
1568466215.6,286046999.8,N
1568466235.4,286046999.8,N
1568466255.2,286046999.9,N
1568466275.1,286047002.8,N
1568466276.0,286047002.8,N
1568466295.8,286047002.8,N
1568466315.7,286047000.1,N
1568466335.5,286047002.1,N
1568466355.3,286047000.0,N
1568466375.2,286046998.2,N
1568466395.0,286046998.1,N
1568466395.9,286046998.1,N
1568466415.8,286046998.2,N
1568466435.6,286047000.7,N
1568466455.4,286047000.6,N
1568466475.3,286047001.0,N
1568466495.1,286047000.0,N
1568466515.8,286047000.2,N
1568466535.7,286046999.7,N
1568466555.5,286047000.5,N
1568466575.4,286047000.6,N
1568466595.2,286047000.0,N
1568466615.0,286047000.4,N
1568466615.9,286047000.4,N
1568466635.8,286047000.5,N
1568466655.6,286047000.9,N
1568466675.5,286047001.0,N
1568466695.3,286046998.1,N
1568466715.1,286046998.1,N
1568466735.9,286046998.3,N
1568466755.7,286046998.4,N
1568466775.5,286046999.2,N
1568466795.4,286046999.4,N
1568466815.2,286046999.4,N
1568466835.1,286046998.3,N
1568466836.0,286046998.3,N
1568466855.8,286046998.1,N
1568466875.6,286046998.2,N
1568466895.5,286046998.8,N
1568466915.3,286046998.6,N
1568466935.2,286046998.6,N
1568466955.9,286046999.3,N
1568466975.7,286046998.7,N
1568466995.6,286046999.4,N
1568467015.4,286046998.7,N
1568467035.3,286046998.7,N
1568467055.1,286046996.5,Y
1568467056.0,286046996.5,P
1568467075.8,286046996.7,N
1568467095.7,286046996.8,N
1568467115.5,286046997.4,N
1568467135.4,286046996.9,Y
1568467155.2,286047000.6,P
1568467175.0,286047000.3,N
1568467175.9,286047000.3,N
1568467195.8,286046999.9,N
1568467215.6,286047002.7,N
1568467235.4,286047002.5,N
1568467255.3,286047002.0,N
1568467275.1,286046999.9,N
1568467295.9,286047002.8,N
1568467315.7,286046999.9,N
1568467335.5,286047002.4,N
1568467355.4,286047002.0,N
1568467375.2,286047002.5,N
1568467395.0,286047002.5,N
1568467395.9,286047002.5,N
1568467415.8,286047002.5,N
1568467435.6,286047000.1,N
1568467455.5,286047002.6,N
1568467475.3,286047001.6,N
1568467495.1,286046999.7,N
1568467515.9,286046999.8,N
1568467535.7,286047000.1,N
1568467555.6,286046999.8,N
1568467575.4,286047002.7,N
1568467595.2,286046999.9,N
1568467615.1,286047002.1,N
1568467616.0,286047002.1,N
1568467635.8,286047000.3,N
1568467655.6,286046999.9,N
1568467675.5,286047000.2,N
1568467695.3,286046999.7,N
1568467715.2,286047000.1,N
1568467735.0,286047002.8,N
1568467735.9,286047002.8,N
1568467755.7,286047002.6,N
1568467775.6,286047001.5,N
1568467795.4,286047001.6,N
1568467815.3,286047001.7,N
1568467835.1,286047001.7,N
1568467855.8,286047001.7,N
1568467875.7,286047002.0,N
1568467895.5,286047001.5,N
1568467915.4,286047002.0,N
1568467935.2,286047001.9,N
1568467955.1,286047004.0,Y
1568467956.0,286047004.0,P
1568467975.8,286047000.0,N
1568467995.6,286047000.4,N
1568468015.5,286047000.5,N
1568468035.3,286047002.3,N
1568468055.2,286047002.5,N
1568468075.9,286046999.7,N
1568468095.7,286047001.1,N
1568468115.6,286046998.5,N
1568468135.4,286046998.6,N
1568468155.2,286046999.7,N
1568468175.1,286046999.7,N
1568468176.0,286046999.7,N
1568468195.8,286047002.0,N
1568468215.7,286047000.0,N
1568468235.5,286047000.2,N
1568468255.3,286047000.7,N
1568468275.2,286046999.8,N
1568468295.0,286047000.9,N
1568468295.9,286047000.9,N
1568468315.8,286047000.5,N
1568468335.6,286046998.2,N
1568468355.4,286047000.8,N
1568468375.3,286047000.7,N
1568468395.1,286047000.7,N
1568468415.8,286047000.2,N
1568468435.7,286046999.7,N
1568468455.5,286046999.8,N
1568468475.4,286047000.7,N
1568468495.2,286047000.0,N
1568468515.0,286047000.6,N
1568468515.9,286047000.6,N
1568468535.8,286047000.2,N
1568468555.6,286046999.7,N
1568468575.4,286047002.3,N
1568468595.3,286047002.2,N
1568468615.1,286047002.8,N
1568468635.9,286047002.3,N
1568468655.7,286047002.6,N
1568468675.5,286047002.3,N
1568468695.4,286047002.6,N
1568468715.2,286047002.2,N
1568468735.0,286047002.1,N
1568468736.0,286047002.1,N
1568468755.8,286047001.9,N
1568468775.6,286047001.4,N
1568468795.5,286047002.0,N
1568468815.3,286046999.8,N
1568468835.1,286046999.7,N
1568468855.9,286047002.8,N
1568468875.7,286047002.5,N
1568468895.6,286047002.4,N
1568468915.4,286047000.0,N
1568468935.2,286047002.2,N
1568468955.1,286047002.4,N
1568468956.0,286047002.4,N
1568468975.8,286047001.6,N
1568468995.7,286047001.9,N
1568469015.5,286047002.5,N
1568469035.3,286047002.6,N
1568469055.2,286047002.6,N
1568469075.9,286047001.6,N
1568469095.7,286047002.1,N
1568469115.6,286047001.7,N
1568469135.4,286047004.3,Y
1568469155.3,286046998.6,P
1568469175.1,286046998.5,N
1568469176.0,286046998.5,N
1568469195.8,286046998.3,N
1568469215.7,286046999.0,N
1568469235.5,286046999.6,N
1568469255.4,286046998.6,N
1568469275.2,286046998.1,N
1568469295.0,286046999.2,N
1568469295.9,286046999.2,N
1568469315.8,286046999.6,N
1568469335.6,286046999.0,N
1568469355.5,286046998.3,N
1568469375.3,286046998.3,N
1568469395.1,286046998.1,N
1568469415.9,286047001.2,N
1568469435.7,286047000.8,N
1568469455.5,286047000.6,N
1568469475.4,286047001.0,N
1568469495.2,286047000.7,N
1568469515.1,286047000.9,N
1568469516.0,286047000.9,N
1568469535.8,286047001.1,N
1568469555.6,286047001.2,N
1568469575.5,286047000.7,N
1568469595.3,286047000.3,N
